DW7572 Weather Reports


Display with metric or nautical units.
time (UTC)temp
F
wind
direction
speed
MPH
gust
MPH
rain 1hr
in
rain 24hr
in
rain mn
in
humidity
%
barometer
mb
20201126080026 33 180 10.0 18.0 0.00 0.00 0.00 91 1011.3
20201126073043 33 180 8.0 14.0 0.00 0.00 0.00 90 1011.2
20201126070024 34 203 9.0 15.0 0.00 0.00 0.00 90 1011.5
20201126063039 34 203 8.0 13.0 0.00 0.00 0.00 90 1011.9
20201126060025 34 203 8.0 16.0 0.00 0.00 0.00 90 1012.5
20201126053021 34 203 8.0 13.0 0.00 0.00 0.00 89 1012.8
20201126050021 34 225 8.0 12.0 0.00 0.00 0.00 89 1012.5
20201126043022 34 203 6.0 12.0 0.00 0.00 0.00 89 1012.6
20201126040020 34 203 7.0 11.0 0.00 0.00 0.00 88 1012.7
20201126033021 35 203 6.0 10.0 0.00 0.00 0.00 87 1012.4
20201126030018 35 203 4.0 7.0 0.00 0.00 0.00 89 1012.6
20201126023019 35 225 4.0 8.0 0.00 0.00 0.00 88 1012.3
20201126020022 35 203 3.0 5.0 0.00 0.00 0.00 89 1012.3
20201126013021 35 180 3.0 8.0 0.00 0.00 0.00 88 1012.1
20201126010022 35 203 2.0 5.0 0.00 0.00 0.00 88 1012.0
20201126003028 36 180 3.0 6.0 0.00 0.00 0.00 88 1012.2
20201126000021 36 270 2.0 8.0 0.00 0.00 0.00 88 1012.1
20201125233022 36 23 1.0 6.0 0.00 0.00 0.00 88 1012.1
20201125230022 36 45 1.0 3.0 0.00 0.00 0.00 88 1011.7
20201125223017 36 338 2.0 4.0 0.00 0.00 0.00 89 1011.5
20201125220021 36 338 1.0 3.0 0.00 0.00 0.00 90 1011.8
20201125213019 37 338 2.0 3.0 0.00 0.00 0.00 91 1011.7
20201125210039 37 338 1.0 3.0 0.00 0.00 0.00 90 1011.9
20201125203025 37 338 1.0 4.0 0.00 0.00 0.00 92 1012.1
20201125200045 37 338 4.0 6.0 0.00 0.00 0.00 93 1012.7
20201125193021 36 338 3.0 5.0 0.00 0.00 0.00 93 1012.6
20201125190025 36 338 3.0 6.0 0.00 0.00 0.00 94 1012.7
20201125183019 36 315 5.0 9.0 0.00 0.00 0.00 95 1013.0
20201125180023 36 338 6.0 10.0 0.00 0.00 0.00 96 1013.3
20201125173028 36 338 8.0 12.0 0.00 0.00 0.00 96 1013.6
20201125170026 35 338 8.0 11.0 0.00 0.00 0.00 97 1013.8
20201125163016 35 338 8.0 12.0 0.00 0.00 0.00 97 1013.8
20201125160024 35 338 6.0 11.0 0.00 0.00 0.00 97 1013.8
20201125153030 34 23 4.0 8.0 0.00 0.00 0.00 97 1013.6
20201125150025 34 0 5.0 8.0 0.00 0.00 0.00 97 1013.5
20201125143021 34 0 6.0 10.0 0.00 0.00 0.00 97 1013.2
20201125140028 34 0 7.0 13.0 0.00 0.00 0.00 98 1013.2
20201125133021 34 338 10.0 15.0 0.00 0.00 0.00 97 1012.6
20201125130021 34 338 10.0 15.0 0.00 0.00 0.00 98 1012.9
20201125123054 34 338 10.0 14.0 0.00 0.00 0.00 98 1012.8
20201125120035 34 338 11.0 15.0 0.00 0.00 0.00 98 1012.5
20201125113022 34 338 10.0 13.0 0.00 0.00 0.00 98 1012.6
20201125110023 34 338 9.0 13.0 0.00 0.00 0.00 98 1012.9
20201125103022 33 338 9.0 14.0 0.00 0.00 0.00 98 1012.9
20201125100025 33 338 10.0 14.0 0.00 0.00 0.00 98 1012.8